WZZ4PJ EDLW-EPWR

Flight info

Callsign WZZ4PJ
Flight time N/A
Altitude 35000
Route GMH1U GMH Q603 TESGA DCT ESATI DCT OSBIT L984 OKG DCT BALTU DCT LEGAZ DCT LAGAR/N0428F270 T871 DINOV
Aircraft A321/M-SDE3FGHIRWY/LB1

Departure

Time 2026-05-04 13:32
Airport Dortmund Airport (EDLW)

Arrival

Time N/A
Airport Copernicus Wrocław Airport (EPWR)
Time Latitude Longitude Altitude Speed Heading
2026-05-04 13:10 51.51468 7.61117 434 ft 0 kts 144°
2026-05-04 13:24 51.51482 7.61101 422 ft 4 kts 142°
2026-05-04 13:24 51.51502 7.61074 427 ft 4 kts 123°
2026-05-04 13:24 51.51510 7.61053 420 ft 4 kts 32°
2026-05-04 13:25 51.51505 7.61050 420 ft 0 kts
2026-05-04 13:28 51.51506 7.61050 420 ft 0 kts
2026-05-04 13:28 51.51525 7.61055 432 ft 5 kts
2026-05-04 13:28 51.51577 7.61063 430 ft 11 kts 36°
2026-05-04 13:29 51.51629 7.61186 427 ft 16 kts 60°
2026-05-04 13:29 51.51669 7.61299 425 ft 19 kts 59°
2026-05-04 13:29 51.51766 7.61572 423 ft 22 kts 61°
2026-05-04 13:29 51.51819 7.61724 412 ft 24 kts 60°
2026-05-04 13:30 51.51916 7.62002 412 ft 22 kts 60°
2026-05-04 13:30 51.51993 7.62221 411 ft 23 kts 60°
2026-05-04 13:30 51.52073 7.62449 415 ft 24 kts 60°
2026-05-04 13:30 51.52129 7.62609 411 ft 25 kts 60°
2026-05-04 13:31 51.52210 7.62771 410 ft 12 kts 20°
2026-05-04 13:31 51.52285 7.62742 411 ft 10 kts 331°
2026-05-04 13:31 51.52325 7.62666 411 ft 9 kts 287°
2026-05-04 13:31 51.52304 7.62562 415 ft 23 kts 240°
2026-05-04 13:32 51.52094 7.61970 408 ft 97 kts 240°
2026-05-04 13:32 51.51669 7.60749 522 ft 144 kts 242°
2026-05-04 13:32 51.51203 7.59357 1295 ft 140 kts 242°
2026-05-04 13:32 51.50725 7.58005 2082 ft 139 kts 238°
2026-05-04 13:33 51.50206 7.56575 2476 ft 159 kts 239°
2026-05-04 13:33 51.49615 7.54926 2690 ft 182 kts 239°
2026-05-04 13:33 51.48952 7.53060 2899 ft 203 kts 239°
2026-05-04 13:33 51.48214 7.50983 3055 ft 226 kts 240°
2026-05-04 13:34 51.47287 7.48794 3261 ft 248 kts 220°
2026-05-04 13:34 51.45727 7.47602 3848 ft 254 kts 192°
2026-05-04 13:34 51.43955 7.47751 4499 ft 261 kts 163°
2026-05-04 13:34 51.42318 7.49035 5222 ft 266 kts 147°
2026-05-04 13:35 51.40856 7.50888 5932 ft 271 kts 137°
2026-05-04 13:35 51.38640 7.55876 7331 ft 280 kts 123°
2026-05-04 13:35 51.37626 7.58557 8014 ft 283 kts 123°
2026-05-04 13:36 51.36602 7.61269 8706 ft 286 kts 123°
2026-05-04 13:36 51.35583 7.63975 9383 ft 289 kts 123°
2026-05-04 13:36 51.34540 7.66745 10037 ft 293 kts 123°
2026-05-04 13:36 51.33459 7.69605 10313 ft 311 kts 123°
2026-05-04 13:37 51.32297 7.72670 10447 ft 333 kts 123°
2026-05-04 13:37 51.31071 7.75908 10762 ft 345 kts 123°
2026-05-04 13:37 51.29752 7.79130 11330 ft 348 kts 130°
2026-05-04 13:37 51.28061 7.81897 11952 ft 348 kts 143°
2026-05-04 13:38 51.26044 7.84017 12550 ft 348 kts 155°
2026-05-04 13:38 51.23789 7.85455 13172 ft 350 kts 162°
2026-05-04 13:38 51.22263 7.86303 13619 ft 351 kts 162°
2026-05-04 13:38 51.20333 7.87372 14132 ft 354 kts 162°
2026-05-04 13:39 51.18000 7.88679 14719 ft 357 kts 160°
2026-05-04 13:39 51.15764 7.90468 15262 ft 362 kts 150°
2026-05-04 13:39 51.13664 7.92619 15823 ft 365 kts 149°
2026-05-04 13:39 51.11519 7.94823 16385 ft 368 kts 150°
2026-05-04 13:40 51.09351 7.97042 16937 ft 371 kts 150°
2026-05-04 13:40 51.07173 7.99265 17479 ft 374 kts 150°
2026-05-04 13:40 51.04971 8.01499 18026 ft 377 kts 150°
2026-05-04 13:40 51.02746 8.03750 18522 ft 380 kts 150°
2026-05-04 13:41 51.00506 8.06019 18972 ft 383 kts 150°
2026-05-04 13:41 50.98248 8.08308 19424 ft 386 kts 150°
2026-05-04 13:41 50.96746 8.09828 19751 ft 388 kts 150°